Regional Weather Roundup
Issued by NWS

Home | Current Version | Previous Version | Text Only | Print | Product List | Glossary Off
Versions: 1 2 3 4 5 6 7 8 9 10 11 12 13 14 15 16 17 18 19 20 21 22 23 24 25 26 27 28 29 30 31 32 33 34 35 36 37 38 39 40 41 42 43 44 45 46 47 48 49 50

000
ASUS43 KOAX 230002
RWRNE

WEATHER ROUNDUP FOR NEBRASKA
NATIONAL WEATHER SERVICE OMAHA NE
700 PM CDT FRI MAY 22 2015

NOTES: SATELLITE DATA IS BEING USED TO AUGMENT CLOUD COVER ABOVE
       12000 FEET.
       "FAIR" INDICATES FEW OR NO CLOUDS BELOW 12,000 FEET WITH NO
       SIGNIFICANT WEATHER AND/OR OBSTRUCTIONS TO VISIBILITY.

  * THESE STATIONS DO NOT REPORT WEATHER SUCH AS RAIN...SNOW OR FOG.

NEZ001>004-019>022-054>056-230100-
NEBRASKA PANHANDLE

CITY           SKY/WX    TMP DP  RH WIND       PRES   REMARKS
SCOTTSBLUFF    CLOUDY    49  47  93 SE17      30.04S
6HR MIN TEMP:  49; 6HR MAX TEMP:  51; 6HR PCP:  0.02;

ALLIANCE       CLOUDY    47  44  90 SE15      30.06R
6HR MIN TEMP:  47; 6HR MAX TEMP:  52; 6HR PCP:  0.01;

CHADRON        CLOUDY    51  44  77 SE12      30.07S
6HR MIN TEMP:  50; 6HR MAX TEMP:  57; 6HR PCP: TRACE;

SIDNEY         CLOUDY    47  45  93 SE17      30.05R
6HR MIN TEMP:  47; 6HR MAX TEMP:  50; 6HR PCP:  0.15;

$$

NEZ057>060-069>072-079>082-230100-
SOUTHWEST NEBRASKA

CITY           SKY/WX    TMP DP  RH WIND       PRES   REMARKS
NORTH PLATTE   LGT RAIN  47  45  93 E16G24    30.10F
6HR MIN TEMP:  46; 6HR MAX TEMP:  48; 6HR PCP:  0.24;

IMPERIAL       CLOUDY    49  47  93 E16       30.04F
6HR MIN TEMP:  48; 6HR MAX TEMP:  50; 6HR PCP:  0.12;

LEXINGTON      LGT RAIN  51  49  95 SE13G22   30.12F
MCCOOK         CLOUDY    51  49  92 E15       30.07S FOG
6HR MIN TEMP:  49; 6HR MAX TEMP:  51; 6HR PCP:  0.16;

$$

NEZ005>010-023>029-035>040-094-230100-
NORTH CENTRAL NEBRASKA

CITY           SKY/WX    TMP DP  RH WIND       PRES   REMARKS
VALENTINE      CLOUDY    51  43  74 SE15      30.14F
6HR MIN TEMP:  50; 6HR MAX TEMP:  61; 6HR PCP: TRACE;

AINSWORTH      CLOUDY    50  46  83 SE12      30.15F
BROKEN BOW     RAIN      49  47  93 E8        30.14S FOG
6HR MIN TEMP:  49; 6HR MAX TEMP:  52; 6HR PCP:  0.17;

ORD            LGT RAIN  50  45  83 E8        30.15F
6HR MIN TEMP:  50; 6HR MAX TEMP:  56; 6HR PCP:  0.16;

$$

NEZ041-046>049-061>064-073>077-083>087-230100-
SOUTH CENTRAL NEBRASKA

CITY           SKY/WX    TMP DP  RH WIND       PRES   REMARKS
GRAND ISLAND   LGT RAIN  54  47  77 SE7       30.16F
6HR MIN TEMP:  53; 6HR MAX TEMP:  58; 6HR PCP:  0.06;

HASTINGS       LGT RAIN  53  50  89 SE9       30.15F FOG
6HR MIN TEMP:  52; 6HR MAX TEMP:  57; 6HR PCP:  0.02;

KEARNEY *      CLOUDY    52  48  87 E16       30.14F
$$

NEZ011>018-030>034-042>045-230100-
NORTHEAST NEBRASKA

CITY           SKY/WX    TMP DP  RH WIND       PRES   REMARKS
NORFOLK        CLOUDY    56  49  77 E6        30.18F
6HR MIN TEMP:  53; 6HR MAX TEMP:  66; 6HR PCP:  0.16;

BLAIR          CLOUDY    63  45  52 E9        30.18S
COLUMBUS *     CLOUDY    61  45  55 E8        30.20F
FREMONT        CLOUDY    65  43  45 E7        30.18F
TEKAMAH        CLOUDY    61  51  70 E7        30.18F
6HR MIN TEMP:  60; 6HR MAX TEMP:  73; 6HR PCP:  0.02;

$$

NEZ050>053-065>068-078-088>093-230100-
SOUTHEAST NEBRASKA

CITY           SKY/WX    TMP DP  RH WIND       PRES   REMARKS
LINCOLN        CLOUDY    62  46  55 SE13      30.18F
6HR MIN TEMP:  61; 6HR MAX TEMP:  65;

OMAHA EPPLEY   PTSUNNY   67  43  41 E8        30.18F
6HR MIN TEMP:  60; 6HR MAX TEMP:  70; 6HR PCP:  0.01;

FALLS CITY     PTSUNNY   64  45  49 SE12      30.18F
6HR MIN TEMP:  62; 6HR MAX TEMP:  66; 6HR PCP: TRACE;

PLATTSMOUTH    CLOUDY    64  44  47 S6        30.18F
$$

NEZ044-045-051>053-067-230100-
OMAHA AREA

CITY           SKY/WX    TMP DP  RH WIND       PRES   REMARKS
OMAHA EPPLEY   PTSUNNY   67  43  41 E8        30.18F
6HR MIN TEMP:  60; 6HR MAX TEMP:  70; 6HR PCP:  0.01;

BLAIR          CLOUDY    63  45  52 E9        30.18S
FREMONT        CLOUDY    65  43  45 E7        30.18F
OFFUTT AFB     MOSUNNY   66  45  46 SE12      30.17F
PLATTSMOUTH    CLOUDY    64  44  47 S6        30.18F
$$


USA.gov is the U.S. government's official web portal to all federal, state and local government web resources and services.